Location: Hurstbourne Priors
(51.2000°N, 1.3667°W)
Time: 19:59:04
(UTC+00:00)

Transit 4A - Pass Details

Date: 20 April 2021
Orbit: 870 x 974 km, 66.8° (Epoch: 09 May)

Event Time Altitude Azimuth Distance (km) Brightness Sun altitude
Rises 08:04:36 0° 321° (NW) 3,529 10.5 27.7°
Reaches altitude 10° 08:07:09 10° 319° (NW) 2,571 9.8 28.1°
Maximum altitude 08:13:03 72° 237° (WSW) 928 8.3 28.9°
Drops below altitude 10° 08:18:49 10° 154° (SSE) 2,515 10.9 29.8°
Sets 08:21:17 0° 153° (SSE) 3,446 11.5 30.2°
